Location: Lombard
(41.8800°N, 88.0080°W)
Time: 19:37:58
(UTC-05:00)

Oscar 11 - Visible Passes

Search period start: 21 May 2022 00:00
Search period end: 31 May 2022 00:00
Orbit: 611 x 625 km, 97.6° (Epoch: 21 May)

Date Brightness Start Highest point End Pass type
(mag) Time Alt. Az. Time Alt. Az. Time Alt. Az.
24 May 10.4 04:36:08 10° E 04:36:43 10° E 04:37:19 10° E visible
25 May 9.9 04:50:49 10° NE 04:53:29 16° E 04:56:09 10° SE visible
30 May 10.1 04:38:40 10° ENE 04:40:12 12° E 04:41:43 10° ESE visible
